Skip Page Navigation
NASA JPL Caltech
NASA Logo - Jet Propulsion Laboratory + View the NASA Portal
+ Center for Near-Earth Object Studies
JPL Home Earth Solar System Stars & Galaxies Technology
JPL Solar System Dynamics
BODIES ORBITS EPHEMERIDES TOOLS PHYSICAL DATA DISCOVERY FAQ SITE MAP
JPL Small-Body Database Browser
Search: [ help ]  
71848 (2000 UJ100)
Classification: Main-belt Asteroid          SPK-ID: 2071848
Ephemeris | Orbit Diagram | Orbital Elements | Mission Design | Physical Parameters | Discovery Circumstances | Close-Approach Data ]

[ show orbit diagram ]
Orbital Elements at Epoch 2459000.5 (2020-May-31.0) TDB
Reference: JPL 25 (heliocentric ecliptic J2000)
 Element Value Uncertainty (1-sigma)   Units 
e .1442933968431459 3.3311e-08  
a 2.341332732153951 1.0952e-08 au
q 2.003493879091414 7.8725e-08 au
i 4.071707769591924 5.159e-06 deg
node 337.7865334267489 5.498e-05 deg
peri 98.34237872243538 5.8789e-05 deg
M 148.976152538782 2.1584e-05 deg
tp 2458458.988872842989
(2018-Dec-06.48887284)
7.6374e-05 TDB
period 1308.55846693836
3.58
9.1815e-06
2.514e-08
d
yr
n .2751118953380002 1.9303e-09 deg/d
Q 2.679171585216488 1.2532e-08 au
  Orbit Determination Parameters
   # obs. used (total)      852  
   data-arc span      8095 days (22.16 yr)  
   first obs. used      1998-02-28  
   last obs. used      2020-04-28  
   planetary ephem.      DE431  
   SB-pert. ephem.      SB431-N16  
   condition code      0  
   norm. resid. RMS      .53691  
   source      ORB  
   producer      Otto Matic  
   solution date      2020-May-20 13:47:07  

Additional Information
 Earth MOID = 1.02353 au 
 Jupiter MOID = 2.55919 au 
 T_jup = 3.547 
[ show covariance matrix ]

Ephemeris | Orbit Diagram | Orbital Elements | Mission Design | Physical Parameters | Discovery Circumstances | Close-Approach Data ]

Physical Parameter Table
Parameter Symbol Value Units Sigma Reference Notes
absolute magnitude H 15.7   n/a MPO412624  

71848 (2000 UJ100)          Discovered 2000-Oct-25 by LINEAR at Socorro
Reference: 20031109/Numbers.arcLast Updated: 2004-04-19

[ show close-approach data ]
Alternate Designations
 2000 UJ100 = 1998 FV119 
Ephemeris | Orbit Diagram | Orbital Elements | Mission Design | Physical Parameters | Discovery Circumstances | Close-Approach Data ]
ABOUT SSD CREDITS/AWARDS PRIVACY/COPYRIGHT GLOSSARY LINKS
FirstGov 2020-Jul-15 06:25 UT
(server date/time)  
NASA Home Page
Site Manager:   Ryan S. Park
Webmaster  Alan B. Chamberlin